Regional Weather Roundup
Issued by NWS Cleveland, OH

Home | Current Version | Previous Version | Text Only | Print | Product List | Glossary Off
Versions: 1 2 3 4 5 6 7 8 9 10 11 12 13 14 15 16 17 18 19 20 21 22 23 24 25 26 27 28 29 30 31 32 33 34 35 36 37 38 39 40 41 42 43 44 45 46 47 48 49 50

000
ASUS41 KCLE 192212
RWRCLE
OHIO REGIONAL WEATHER ROUNDUP
NATIONAL WEATHER SERVICE WILMINGTON, OH
600 PM EDT TUE SEP 19 2017

NOTE: "FAIR" INDICATES FEW OR NO CLOUDS BELOW 12,000 FEET WITH NO
SIGNIFICANT WEATHER AND/OR OBSTRUCTIONS TO VISIBILITY.

OHZ001>008-015>018-024>027-034-035-043-044-192300-
   NORTHWEST OHIO

CITY           SKY/WX    TMP DP  RH WIND       PRES   REMARKS
DEFIANCE       LGT RAIN  68  65  90 CALM      29.93F
FINDLAY        PTSUNNY   74  68  81 S6        29.93S
TOLEDO EXPRESS CLOUDY    70  70 100 E6        29.93S
TOLEDO EXEC    HVY RAIN  71  69  93 E6        29.95R VSB 1
LIMA           FAIR      74  68  81 S7        29.93S
$$

OHZ009>014-019>023-028>033-038-089-192300-
   NORTHEAST OHIO

CITY           SKY/WX    TMP DP  RH WIND       PRES   REMARKS
CLE-HOPKINS    PTSUNNY   77  67  71 N7        29.97R
CLE-LAKEFRONT  PTSUNNY   72  67  84 NE8       29.94S
CUY CO. ARPT   CLOUDY    77  64  65 E8        29.97R
LORAIN-ELYRIA  CLOUDY    74  62  66 CALM      29.96R
ASHTABULA      CLOUDY    72  68  87 N5        29.99S
AKRON-CANTON   PTSUNNY   80  61  52 W5        29.96S
WOOSTER        PTSUNNY   76  65  68 CALM      29.97S
MANSFIELD      FAIR      76  65  68 SW7       29.97R
YOUNGSTOWN     PTSUNNY   74  66  76 NW9       29.98R
$$

OHZ042-051>053-060>062-070>072-077>081-192300-
  SOUTHWEST OHIO

CITY           SKY/WX    TMP DP  RH WIND       PRES   REMARKS
CINC-COVINGTON PTSUNNY   76  67  73 SW8       29.94S
CINC-LUNKEN    PTSUNNY   75  70  84 S5        29.94R
HAMILTON       PTSUNNY   80  66  62 S3        29.94S
DAYTON         LGT RAIN  72  66  81 S5        29.95S
WRIGHT-PAT AFB CLOUDY    73  69  88 S3        29.94R
DAYTON GENERAL PTSUNNY   76  64  66 SW3       29.94R
WILMINGTON     FAIR      78  67  68 S7        29.95R
$$

OHZ036-037-039>041-045>050-054>059-063>069-073>076-082>088-192300-
  CENTRAL AND SOUTHEAST OHIO

CITY           SKY/WX    TMP DP  RH WIND       PRES   REMARKS
COLUMBUS       PTSUNNY   76  65  68 S5        29.95S
OSU AIRPORT    FAIR      76  67  73 S5        29.95S
BOLTON FIELD   MOSUNNY   75  66  73 S5        29.96S
RICKENBACK AFB CLOUDY    74  65  73 CALM      29.94F
NEWARK         PTSUNNY   77  65  66 W6        29.95R
MARION         FAIR      75  63  66 S7        29.96S
LANCASTER      CLOUDY    76  66  71 CALM      29.95F
ZANESVILLE     FAIR      79  64  60 W5        29.95S
NEW PHILLY     FAIR      81  62  52 CALM      29.95F
$$




USA.gov is the U.S. government's official web portal to all federal, state and local government web resources and services.